COSMOS 2251 DEB, 33761

Orbit data source: Space-Track

COSMOS 2251 DEB, 33761 is space debris in LEO originally from a launch on Wed, 16 Jun 1993 UTC launched from the Plesetsk Missile And Space Complex (PKMTR). The debris from Iridium 33, an American commercial communications satellite, has been tracked extensively since its accidental collision with the defunct Russian satellite Cosmos 2251 in 2009. This event, occurring at high speed in low Earth orbit (LEO), generated thousands of pieces of space debris, significantly increasing the risk of further collisions. The Iridium 33 debris cloud has impacted space traffic management and orbital debris mitigation strategies, making it a subject of ongoing study in space situational awareness.

Loading next visibility...
Identifier
33761, 1993-036J
Orbit
LEO
Country
Flag of CISCIS
Related business
Manufacturer
Unknown
Mission
Spacecraft
Bus & Motor
Unknown
Mass
Unknown
Launch date (UTC)
1993-06-16 (32 years ago)
Launch vehicle
Unknown
Launch site
Plesetsk Missile And Space Complex (PKMTR)
Object type
Payload
Rocket body
Debris
Shape & HBR
Unknown shape, 0.1 m
Radar Cross Section
Small (<0.1 m²)

Expand to show TLE details & history
Last TLE update: 22 hours ago

TLE from 22 hours ago
0 COSMOS 2251 DEB
1 33761U 93036J   25309.48950061  .00001524  00000-0  46799-3 0  9993
2 33761  74.0353 321.2681 0021518  50.2212 101.9324 14.42353049876978
Epoch: 2025-11-05T11:44Z
TLE epoch observation values (Epoch: 2025-11-05T11:44:52.852Z)
Latitude
26.49836°
Longitude
-88.06916°
Altitude
756.858 km
Speed
7.477 km/s
True Right ascension
08h 52m 26s
True Declination
26° 21' 41"
Sunlit
Object was in daylight at epoch
Visualization orbit readout
Latitude
Unknown
Longitude
Unknown
Altitude
Unknown
Speed
Unknown
Apparent Right ascension
Unknown
Apparent Declination
Unknown
Sunlit
N/A
Visualization observer readout
Local Sidereal Time
05:41:37
Azimuth
Unknown
Elevation
Unknown
Doppler factor
Unknown
Orbital elements
Apogee altitude
763.686 km
Perigee altitude
733.017 km
Semi-major axis
7,126.489 km
Eccentricity
0.00215
Inclination
74.0353°
RAAN
321.2681°
Arg. of periapsis
50.2212°
True anomaly
102.17352°
Mean anomaly
101.9324°
Eccentric anomaly
102.05297°
Mean motion
3.60769 °/min
Orbital period
99.79 mins
BSTAR
0.00046799
Loading maneuver chart data...
Computing Atmospheric mass density...

Documentation

Showing up to 5 results
|